{"data":{"norad_id":52992,"intl_designator":"2022-076G","name":"STARLINK-4269","alt_names":[],"object_type":"PAYLOAD","status":"ACTIVE","operator":null,"country":"US","launch_date":"2022-07-07","launch_site_code":"AFETR","launch_vehicle":null,"mission":null,"orbit_class":"UNKNOWN","rcs_meters":null,"size_class":null,"mass_kg":null,"dimensions":null,"purposes":["comms"],"wikipedia_slug":null,"has_3d_model":false,"image_url":null,"decayed_at":null,"tle_current":{"epoch":"2026-05-25T02:41:22.534368Z","epoch_age_seconds":61538,"freshness":"FRESH","line1":"1 52992U 22076G   26145.11206637  .00000459  00000+0  46945-4 0  9997","line2":"2 52992  53.2133 121.0567 0001280  70.6785 289.4345 15.08838912214245","mean_motion":15.08838912,"eccentricity":0.000128,"inclination_deg":53.2133,"raan_deg":121.0567,"arg_perigee_deg":70.6785,"mean_anomaly_deg":289.4345,"bstar":4.6945e-5,"rev_number":21424,"period_min":95.437623496285,"perigee_km":538.86122543138,"apogee_km":540.6322036623,"semimajor_km":6917.8837145468,"source":"CELESTRAK","updated_at":"2026-05-25T13:38:17.274762Z"}}}